Location: Peebles
(55.6412°N, 3.1714°W)
Time: 07:59:25
(UTC+00:00)

Meteor 1-15 Rocket - Visible Passes

Search period start: 20 January 2022 00:00
Search period end: 30 January 2022 00:00
Orbit: 839 x 908 km, 81.2° (Epoch: 19 January)

Date Brightness Start Highest point End Pass type
(mag) Time Alt. Az. Time Alt. Az. Time Alt. Az.
20 Jan 6.8 03:10:00 14° E 03:11:03 14° ENE 03:13:55 10° NE visible
20 Jan 4.3 04:52:34 59° SSE 04:53:26 70° E 04:59:01 10° NNE visible
20 Jan 5.1 06:35:07 21° W 06:37:26 27° WNW 06:42:09 10° N visible
20 Jan 6.8 17:06:20 10° NW 17:10:04 18° W 17:13:50 10° WSW visible
21 Jan 6.7 03:05:42 15° E 03:05:47 15° ENE 03:08:49 10° NE visible
21 Jan 4.3 04:48:14 73° E 04:48:14 73° E 04:53:49 10° NNE visible
21 Jan 5.1 06:30:47 23° W 06:32:15 26° WNW 06:36:56 10° N visible
21 Jan 6.8 17:01:11 10° NW 17:04:49 18° W 17:08:30 10° WSW visible
22 Jan 6.7 03:01:11 15° ENE 03:01:11 15° ENE 03:03:44 10° NE visible
22 Jan 4.4 04:43:43 66° NE 04:43:43 66° NE 04:48:37 10° NNE visible
22 Jan 5.1 06:26:15 24° WNW 06:27:06 25° WNW 06:31:42 10° N visible
23 Jan 6.8 02:56:32 15° ENE 02:56:32 15° ENE 02:58:37 10° NE visible
23 Jan 4.6 04:39:03 55° NNE 04:39:03 55° NNE 04:43:25 10° NNE visible
23 Jan 5.2 06:21:34 24° WNW 06:21:55 25° NW 06:26:28 10° N visible
24 Jan 6.8 02:51:46 15° ENE 02:51:46 15° ENE 02:53:30 10° NE visible
24 Jan 4.9 04:34:17 47° NNE 04:34:17 47° NNE 04:38:13 10° NNE visible
24 Jan 5.3 06:16:48 24° NW 06:16:48 24° NW 06:21:14 10° N visible
25 Jan 6.8 02:46:56 14° NE 02:46:56 14° NE 02:48:23 10° NE visible
25 Jan 5.1 04:29:27 41° NNE 04:29:27 41° NNE 04:33:01 10° NNE visible
25 Jan 5.3 06:11:57 23° NW 06:11:57 23° NW 06:16:00 10° N visible
26 Jan 6.9 02:42:03 14° NE 02:42:03 14° NE 02:43:16 10° NE visible
26 Jan 5.3 04:24:33 36° NNE 04:24:33 36° NNE 04:27:49 10° NNE visible
26 Jan 5.4 06:07:04 22° NW 06:07:04 22° NW 06:10:46 10° N visible
27 Jan 6.9 02:37:07 13° NE 02:37:07 13° NE 02:38:07 10° NE visible
27 Jan 5.5 04:19:37 33° NNE 04:19:37 33° NNE 04:22:37 10° NNE visible
27 Jan 5.5 06:02:07 21° NW 06:02:07 21° NW 06:05:33 10° N visible
28 Jan 6.9 02:32:09 13° NE 02:32:09 13° NE 02:32:59 10° NE visible
28 Jan 5.6 04:14:38 30° NNE 04:14:38 30° NNE 04:17:25 10° NNE visible
28 Jan 5.6 05:57:08 20° NW 05:57:08 20° NW 06:00:18 10° N visible
29 Jan 7.0 02:27:07 13° NE 02:27:07 13° NE 02:27:51 10° NE visible
29 Jan 5.7 04:09:38 28° N 04:09:38 28° N 04:12:12 10° NNE visible
29 Jan 5.7 05:52:08 19° NW 05:52:08 19° NW 05:55:04 10° N visible
